Inquirer Daily News

Weather

Get conditions and forecasts for any City, State, ZIP code or Country:  
Trenton, NJ
on Thursday, January 31, 2013

Thursday
Previous Day Next Day
Daily Summary
 ActualAverageRecord
Temperature
Mean Temperature °F 32°F  
Max Temperature 62°F 40°F 64°F (1947)
Min Temperature 29°F 24°F -1°F (1920)
Degree Days
Heating Degree Days 19 33  
Month to date heating degree days 950 1050  
Since 1 July heating degree days 2708 2946  
Cooling Degree Days 0 0  
Month to date cooling degree days 0 0  
Year to date cooling degree days 0 0  
Moisture
Dew Point 36°F   
Average Humidity 63    
Maximum Humidity 90    
Minimum Humidity 36    
Precipitation
Precipitation 0.85 in 0.10 in 0.85 in (2013)
Month to date precipitation 2.82 3.16  
Year to date precipitation 2.82 3.16  
Wind
Wind Speed 17 mph   
Max Wind Speed 38 mph   
Max Gust Speed 53 mph   
Visibility 8 miles   
Events Rain   

Key: T is trace of precipitation, MM is missing value
Source: NWS Daily Summary
Time(EST)TemperatureDew PointHumidity Pressure Visibility Wind DirectionWind SpeedGust SpeedPrecipitationEvents Conditions
12:53 AM 61.0°F 57.9°F 90% 29.26 in 8.0 miles SSW 20.7 mph 36.8 mph 0.18 in Rain Light Rain
1:34 AM 62.6°F 57.2°F 82% 29.18 in 9.0 miles SSW 29.9 mph 40.3 mph 0.06 in Rain Light Rain
1:53 AM 62.1°F 57.9°F 86% 29.14 in 6.0 miles SSW 25.3 mph 42.6 mph 0.07 in Rain Light Rain
2:53 AM 62.1°F 57.9°F 86% 29.08 in 6.0 miles SSW 27.6 mph 43.7 mph 0.09 in Rain Light Rain
3:07 AM 62.6°F 57.2°F 82% 29.09 in 3.0 miles SSW 26.5 mph 42.6 mph 0.05 in Rain Rain
3:27 AM 62.6°F 57.2°F 82% 29.14 in 2.5 miles SW 33.4 mph 52.9 mph 0.15 in Rain Heavy Rain
3:30 AM 62.6°F 57.2°F 82% 29.16 in 1.8 miles WSW 25.3 mph 52.9 mph 0.27 in Rain Heavy Rain
3:40 AM 60.8°F 57.2°F 88% 29.16 in 2.0 miles West 17.3 mph 33.4 mph 0.34 in Rain Rain
3:47 AM 60.8°F 57.2°F 88% 29.16 in 4.0 miles West 12.7 mph 26.5 mph 0.37 in Rain Rain
3:48 AM 61.0°F 57.9°F 90% 29.14 in 5.0 miles West 13.8 mph 26.5 mph 0.37 in Rain Rain
4:53 AM 57.0°F 54.0°F 89% 29.09 in 6.0 miles SSW 11.5 mph - 0.11 in Rain Rain
5:43 AM 57.2°F 53.6°F 88% 29.09 in 10.0 miles SW 19.6 mph 31.1 mph 0.00 in   Mostly Cloudy
5:53 AM 55.9°F 52.0°F 87% 29.12 in 4.0 miles West 17.3 mph 33.4 mph 0.05 in Rain Light Rain
6:17 AM 50.0°F 44.6°F 82% 29.20 in 6.0 miles NW 23.0 mph 39.1 mph 0.00 in Rain Light Rain
6:31 AM 46.4°F 41.0°F 81% 29.22 in 8.0 miles NW 18.4 mph 34.5 mph 0.01 in Rain Light Rain
6:53 AM 46.9°F 37.9°F 71% 29.22 in 10.0 miles NW 18.4 mph 32.2 mph 0.01 in   Overcast
7:53 AM 46.0°F 30.0°F 54% 29.30 in 10.0 miles WNW 24.2 mph 36.8 mph N/A   Overcast
8:53 AM 44.1°F 28.0°F 53% 29.37 in 10.0 miles NW 19.6 mph 33.4 mph N/A   Mostly Cloudy
9:53 AM 43.0°F 25.0°F 49% 29.42 in 10.0 miles NW 18.4 mph 33.4 mph N/A   Partly Cloudy
10:53 AM 42.1°F 21.9°F 45% 29.46 in 10.0 miles WNW 18.4 mph 41.4 mph N/A   Overcast
12:53 PM 43.0°F 19.9°F 40% 29.48 in 10.0 miles WNW 16.1 mph 28.8 mph N/A   Partly Cloudy
1:53 PM 42.1°F 17.1°F 37% 29.51 in 10.0 miles WNW 18.4 mph 38.0 mph N/A   Partly Cloudy
2:53 PM 41.0°F 18.0°F 40% 29.55 in 10.0 miles WNW 18.4 mph 32.2 mph N/A   Mostly Cloudy
3:53 PM 39.9°F 17.1°F 40% 29.60 in 10.0 miles West 21.9 mph 33.4 mph N/A   Mostly Cloudy
4:53 PM 36.0°F 14.0°F 41% 29.65 in 10.0 miles WNW 17.3 mph 27.6 mph N/A   Partly Cloudy
5:53 PM 35.1°F 12.9°F 40% 29.70 in 10.0 miles WNW 17.3 mph 29.9 mph N/A   Clear
6:53 PM 34.0°F 15.1°F 46% 29.72 in 10.0 miles WNW 9.2 mph - N/A   Clear
7:53 PM 32.0°F 18.0°F 56% 29.75 in 10.0 miles NW 15.0 mph 26.5 mph N/A   Mostly Cloudy
8:53 PM 32.0°F 14.0°F 48% 29.78 in 10.0 miles NW 13.8 mph 19.6 mph N/A   Overcast
9:53 PM 30.0°F 12.0°F 47% 29.80 in 10.0 miles WNW 13.8 mph 20.7 mph N/A   Scattered Clouds
10:53 PM 28.9°F 10.0°F 45% 29.81 in 10.0 miles WNW 11.5 mph 18.4 mph N/A   Clear
11:53 PM 28.9°F 10.0°F 45% 29.83 in 10.0 miles West 9.2 mph 16.1 mph N/A   Clear
Astronomy
Sunrise:07:09 AM (EST) Moon Rise:10:17 PM (EST)
Sunset:05:16 PM (EST) Moon Set:09:06 AM (EST)
Moon Phase
Jan. 31 Feb. 03 Feb. 10 Feb. 17 Feb. 25

Copyright © 2014 The Weather Underground, Inc.